TimeMDT,TemperatureF,Dew PointF,Humidity,Sea Level PressureIn,VisibilityMPH,Wind Direction,Wind SpeedMPH,Gust SpeedMPH,PrecipitationIn,Events,Conditions,WindDirDegrees,DateUTC
12:53 AM,41.0,23.0,49,30.16,10.0,WSW,13.8,-,N/A,,Overcast,240,2012-10-07 06:53:00
1:53 AM,39.9,21.9,49,30.20,10.0,WSW,15.0,-,N/A,,Mostly Cloudy,240,2012-10-07 07:53:00
2:53 AM,39.0,21.9,50,30.19,10.0,WSW,13.8,-,N/A,,Mostly Cloudy,240,2012-10-07 08:53:00
3:53 AM,39.0,21.9,50,30.17,10.0,WSW,16.1,-,N/A,,Scattered Clouds,240,2012-10-07 09:53:00
4:53 AM,37.9,21.0,51,30.15,10.0,WSW,19.6,-,N/A,,Partly Cloudy,240,2012-10-07 10:53:00
5:53 AM,37.9,21.0,51,30.14,10.0,WSW,17.3,-,N/A,,Partly Cloudy,240,2012-10-07 11:53:00
6:53 AM,37.0,21.0,52,30.14,10.0,WSW,18.4,-,N/A,,Partly Cloudy,240,2012-10-07 12:53:00
7:53 AM,37.0,21.9,54,30.13,10.0,WSW,19.6,-,N/A,,Clear,240,2012-10-07 13:53:00
8:53 AM,39.0,23.0,53,30.13,10.0,SW,21.9,-,N/A,,Clear,230,2012-10-07 14:53:00
9:53 AM,43.0,23.0,45,30.11,10.0,WSW,17.3,-,N/A,,Clear,240,2012-10-07 15:53:00
10:53 AM,48.0,24.1,39,30.08,10.0,SW,18.4,26.5,N/A,,Clear,230,2012-10-07 16:53:00
11:53 AM,52.0,25.0,35,30.05,10.0,WSW,19.6,24.2,N/A,,Clear,240,2012-10-07 17:53:00
12:53 PM,54.0,25.0,33,30.02,10.0,SW,15.0,24.2,N/A,,Clear,220,2012-10-07 18:53:00
1:53 PM,55.9,25.0,30,29.99,10.0,SW,13.8,-,N/A,,Clear,230,2012-10-07 19:53:00
2:53 PM,57.9,25.0,28,29.95,10.0,WSW,17.3,24.2,N/A,,Clear,240,2012-10-07 20:53:00
3:53 PM,59.0,25.0,27,29.94,10.0,SW,15.0,23.0,N/A,,Clear,230,2012-10-07 21:53:00
4:53 PM,61.0,25.0,25,29.91,10.0,SW,10.4,-,N/A,,Clear,230,2012-10-07 22:53:00
5:53 PM,59.0,26.1,28,29.91,10.0,WSW,10.4,-,N/A,,Partly Cloudy,240,2012-10-07 23:53:00
6:53 PM,57.9,27.0,31,29.91,10.0,West,9.2,-,N/A,,Partly Cloudy,280,2012-10-08 00:53:00
7:53 PM,55.9,26.1,32,29.93,10.0,WSW,12.7,-,N/A,,Clear,240,2012-10-08 01:53:00
8:53 PM,54.0,24.1,31,29.94,10.0,WSW,15.0,-,N/A,,Clear,240,2012-10-08 02:53:00
9:53 PM,53.1,24.1,32,29.94,10.0,WSW,15.0,-,N/A,,Clear,240,2012-10-08 03:53:00
10:53 PM,51.1,23.0,33,29.92,10.0,SW,18.4,-,N/A,,Clear,230,2012-10-08 04:53:00
11:53 PM,50.0,21.9,33,29.91,10.0,WSW,21.9,-,N/A,,Clear,240,2012-10-08 05:53:00